Location: Shepherdstown, WV
(39.4326°N, 77.8042°W)
Time: 05:23:00
(UTC-04:00)

SR - Pass Details

Date: 07 August 2021
Orbit: 581 x 874 km, 66.7° (Epoch: 24 September)

Event Time Altitude Azimuth Distance (km) Brightness Sun altitude
Rises 15:11:36 0° 324° (NW) 3,026 ? 55.9°
Reaches altitude 10° 15:14:04 10° 318° (NW) 2,062 ? 55.5°
Maximum altitude 15:18:26 43° 248° (WSW) 870 ? 54.8°
Drops below altitude 10° 15:22:32 10° 176° (S) 1,927 ? 54.1°
Sets 15:24:47 0° 169° (S) 2,804 ? 53.7°
